TimeHST,TemperatureF,Dew PointF,Humidity,Sea Level PressureIn,VisibilityMPH,Wind Direction,Wind SpeedMPH,Gust SpeedMPH,PrecipitationIn,Events,Conditions,WindDirDegrees,DateUTC
12:53 AM,72.0,68.0,87,29.98,10.0,WSW,5.8,-,N/A,,Partly Cloudy,240,2013-10-25 10:53:00
1:53 AM,71.1,66.9,87,29.97,10.0,SW,4.6,-,N/A,,Partly Cloudy,230,2013-10-25 11:53:00
2:53 AM,70.0,66.0,87,29.96,10.0,SW,5.8,-,N/A,,Clear,230,2013-10-25 12:53:00
3:53 AM,70.0,64.9,84,29.96,10.0,WSW,4.6,-,N/A,,Partly Cloudy,240,2013-10-25 13:53:00
4:53 AM,70.0,64.0,81,29.96,10.0,SW,5.8,-,N/A,,Mostly Cloudy,230,2013-10-25 14:53:00
5:53 AM,71.1,64.0,78,29.97,10.0,WSW,5.8,-,N/A,,Mostly Cloudy,240,2013-10-25 15:53:00
6:53 AM,72.0,64.9,78,29.99,10.0,WSW,3.5,-,N/A,,Overcast,250,2013-10-25 16:53:00
7:53 AM,73.0,68.0,84,30.01,10.0,South,5.8,-,N/A,,Overcast,180,2013-10-25 17:53:00
8:53 AM,75.9,70.0,82,30.02,10.0,SSE,3.5,-,N/A,,Overcast,150,2013-10-25 18:53:00
9:21 AM,78.1,71.1,79,30.02,10.0,Calm,Calm,-,N/A,,Mostly Cloudy,0,2013-10-25 19:21:00
9:53 AM,80.1,70.0,71,30.01,10.0,Calm,Calm,-,N/A,,Overcast,0,2013-10-25 19:53:00
10:53 AM,82.9,73.0,72,30.00,10.0,NE,9.2,-,N/A,,Mostly Cloudy,50,2013-10-25 20:53:00
11:53 AM,79.0,71.1,77,29.99,10.0,North,5.8,-,N/A,,Mostly Cloudy,10,2013-10-25 21:53:00
12:53 PM,79.0,72.0,79,29.97,10.0,NNW,4.6,-,N/A,,Mostly Cloudy,340,2013-10-25 22:53:00
1:53 PM,81.0,71.1,72,29.95,10.0,NNW,4.6,-,N/A,,Mostly Cloudy,340,2013-10-25 23:53:00
2:53 PM,81.0,71.1,72,29.94,10.0,East,4.6,-,N/A,,Overcast,100,2013-10-26 00:53:00
3:53 PM,81.0,70.0,69,29.95,10.0,ESE,8.1,-,N/A,,Mostly Cloudy,120,2013-10-26 01:53:00
4:04 PM,81.0,71.1,72,29.95,10.0,SE,6.9,-,N/A,,Overcast,140,2013-10-26 02:04:00
4:11 PM,81.0,71.1,72,29.95,10.0,SSE,5.8,-,N/A,,Mostly Cloudy,150,2013-10-26 02:11:00
4:53 PM,79.0,71.1,77,29.96,10.0,SSE,3.5,-,N/A,,Mostly Cloudy,150,2013-10-26 02:53:00
5:53 PM,77.0,71.1,82,29.97,10.0,Calm,Calm,-,N/A,,Clear,0,2013-10-26 03:53:00
6:53 PM,75.0,72.0,90,29.99,10.0,SSW,3.5,-,0.00,,Scattered Clouds,200,2013-10-26 04:53:00
7:53 PM,73.9,72.0,93,30.02,10.0,SSW,3.5,-,N/A,,Scattered Clouds,210,2013-10-26 05:53:00
8:53 PM,73.9,72.0,93,30.03,10.0,SW,3.5,-,N/A,,Scattered Clouds,220,2013-10-26 06:53:00
9:53 PM,73.0,71.1,93,30.03,10.0,SW,3.5,-,N/A,,Clear,220,2013-10-26 07:53:00
10:53 PM,73.0,70.0,90,30.02,10.0,SSW,4.6,-,N/A,,Clear,200,2013-10-26 08:53:00
11:53 PM,72.0,69.1,91,30.01,10.0,ESE,5.8,-,N/A,,Mostly Cloudy,110,2013-10-26 09:53:00